Flag for Germany Weather past 2 weeks in Lübbecke, North Rhine-Westphalia, Germany

Now
50 °F

Drizzle. Fog.


Feels Like: 43 °F
Forecast: 47 / 48 °F
Wind: 25 mph from Southwest

Location: Bueckeburg

Current Time: Dec 22, 2014 at 4:24:08 PM

Latest Report: Dec 22, 2014 at 3:20 PM


Visibility: 3 mi

Pressure: 29.86 "Hg

Humidity: 88%

Dew point: 46 °F

Location of LübbeckeLocation

Historic Weather in Lübbecke — Graph

°F

Lübbecke temperature yesterday

Maximum temperature yesterday: 46 °F (at 10:20 PM)
Minimum temperature yesterday: 39 °F (at 1:20 AM)
Average temperature yesterday: 43 °F

Past Weeks' High & Low Weather Summary

 TemperatureHumidityPressure
High54 °F (Dec 18, 2:20 PM)94% (Dec 18, 12:20 AM)30.36 "Hg (Dec 18, 12:20 AM)
Low34 °F (Dec 14, 9:20 PM)61% (Dec 10, 5:20 AM)29.30 "Hg (Dec 12, 3:20 PM)
Average42 °F84%29.88 "Hg
* Reported Dec 7 3:20 PM — Dec 22 3:20 PM, Lübbecke, Weather by CustomWeather, © 2014

Note: Actual official high and low records may vary slightly from our data, if they occured in-between our weather recording intervals... More about our weather records

Advertising

Lübbecke weather history for previous 24 hours

 ConditionsComfort  
Time TempWeatherWind HumidityBarometerVisibility
3:20 PM
Dec 22
50 °FDrizzle. Fog.25 mph88%29.86 "Hg3 mi
2:57 PM50 °FDrizzle. Fog.25 mph88%29.89 "Hg3 mi
2:46 PM50 °FPartly sunny.22 mph88%29.89 "HgN/A
2:20 PM50 °FBroken clouds.25 mph88%29.89 "HgN/A
1:20 PM48 °FDrizzle. Fog.24 mph94%29.89 "Hg3 mi
12:20 PM48 °FDrizzle. Fog.26 mph94%29.92 "Hg2 mi
11:20 AM48 °FDrizzle. Fog.29 mph87%29.92 "Hg3 mi
10:50 AM48 °FDrizzle. Partly sunny.26 mph87%29.89 "Hg4 mi
10:20 AM48 °FDrizzle. Fog.29 mph87%29.89 "Hg3 mi
9:20 AM48 °FDrizzle. Fog.24 mph87%29.92 "Hg3 mi
8:20 AM48 °FDrizzle. Fog.25 mph87%29.92 "Hg2 mi
7:20 AM48 °FDrizzle. Fog.23 mph87%29.92 "Hg3 mi
6:20 AM48 °FDrizzle. Fog.22 mph87%29.95 "Hg2 mi
5:20 AM48 °FCool.24 mph87%29.95 "Hg2 mi
4:20 AM48 °FCool.24 mph87%29.95 "Hg4 mi
3:20 AM46 °FCool.23 mph93%29.98 "Hg4 mi
2:20 AM46 °FCool.24 mph87%29.98 "Hg3 mi
1:20 AM46 °FCool.22 mph87%30.01 "Hg4 mi
12:20 AM46 °FCool.23 mph87%30.04 "Hg4 mi
11:20 PM
Dec 21
46 °FCool.21 mph87%30.04 "Hg4 mi
10:20 PM46 °FCool.21 mph82%30.04 "Hg6 mi
9:20 PM45 °FQuite cool.18 mph87%30.07 "Hg4 mi
8:20 PM45 °FQuite cool.21 mph87%30.09 "Hg4 mi
7:20 PM45 °FQuite cool.20 mph81%30.09 "Hg6 mi
6:20 PM45 °FQuite cool.17 mph87%30.12 "Hg3 mi
5:20 PM45 °FQuite cool.17 mph81%30.15 "Hg6 mi
4:20 PM45 °FQuite cool.16 mph81%30.18 "Hg5 mi
Weather by CustomWeather, © 2014

See weather overviewHow to use our weather pages